Miscellaneous Local Product
Issued by NWS North Platte, NE

Home | Current Version | Previous Version | Text Only | Print | Product List | Glossary On
Versions: 1 2 3 4 5 6 7 8 9 10 11 12 13 14 15 16 17 18 19 20 21 22 23 24 25 26 27 28 29 30 31 32 33 34 35 36 37 38 39 40 41 42 43 44 45 46 47 48 49 50
000
AXUS43 KLBF 250310
MISLBF


WESTERN AND NORTH CENTRAL NEBRASKA HOURLY WEATHER ROUNDUP
NATIONAL WEATHER SERVICE NORTH PLATTE NE
1000 PM CDT FRI MAR 24 2017

NOTE: "FAIR" INDICATES FEW OR NO CLOUDS BELOW 12,000 FEET WITH NO
SIGNIFICANT WEATHER AND/OR OBSTRUCTIONS TO VISIBILITY.

NOTE: STATIONS NOT REPORTING VARIABLES SUCH AS SKY/WEATHER OR
PRESSURE ARE PROVIDED BY RAWS AND APRS NETWORKS AND ARE NOT UNDER
NATIONAL WEATHER SERVICE QUALITY CONTROL.

...OBSERVATIONS IN AND NEAR THE EASTERN PANHANDLE OF NEBRASKA...

CITY           SKY/WX    TMP DP  RH WIND       PRES   REMARKS
PINE RIDGE     CLEAR     43  31  62 CALM      30.10R
CHADRON        CLEAR     43  31  62 S9        30.09R
ALLIANCE       CLEAR     35  26  69 CALM      30.11R
SIDNEY         CLEAR     36  26  67 E6        30.13R WCI  31
CRESCENT LAKE    N/A     44  28  53 E8          N/A
$$

...OBSERVATIONS IN NORTHERN NEBRASKA AND FAR SOUTHERN SOUTH DAKOTA...

CITY           SKY/WX    TMP DP  RH WIND       PRES   REMARKS
WINNER         FAIR      36  29  75 S7        30.12S WCI  30
VALENTINE      CLEAR     38  28  67 E5        30.12S WCI  34
THEDFORD       CLOUDY    36  31  82 CALM      30.12R
AINSWORTH      CLEAR     34  31  88 CALM      30.12R
O`NEILL        CLOUDY    40  38  92 N7        30.11S
ORD            CLOUDY    42  38  85 N9        30.07S
BROKEN BOW     CLOUDY    43  38  82 N13       30.07S
VALENTINE NWR    N/A     40  31  71 CALM        N/A
HALSEY           N/A     41  33  74 CALM        N/A
BUTTE            N/A     37  34  88 NE12        N/A  WCI  29
CHAMBERS         N/A     41  39  92 CALM        N/A
EWING            N/A     40  38  93 NE5         N/A
$$

...OBSERVATIONS IN SOUTHWEST NEBRASKA AND FAR NORTHEAST COLORADO...

CITY           SKY/WX    TMP DP  RH WIND       PRES   REMARKS
WRAY           FAIR      36  36 100 NW8       30.11S WCI  29
HOLYOKE        FAIR      39  36  87 W8        30.12S WCI  34
IMPERIAL       CLOUDY    44  37  76 NW7       30.10S
OGALLALA       CLEAR     39  32  76 N8        30.11S WCI  33
NORTH PLATTE   CLOUDY    45  37  73 N8        30.09S
MCCOOK         LGT RAIN  41  41 100 NE9       30.06F
LEXINGTON      LGT RAIN  42  39  88 N22       30.05S
STAPLETON        N/A     39  34  81 CALM        N/A
GOTHENBURG       N/A     42  37  83 N13         N/A
CALLAWAY         N/A     41  38  91 NE8         N/A
$$

...OBSERVATIONS IN CENTRAL LINCOLN COUNTY AREA...

CITY           SKY/WX    TMP DP  RH WIND       PRES   REMARKS
N.P. AIRPORT   CLOUDY    45  37  73 N8        30.09S
N.P. DOWNTOWN    N/A     44  37  76 CALM        N/A
N.P. SOUTHEAST   N/A     44  37  75 CALM        N/A
N.P. HILLCREST   N/A     43  37  78 N3          N/A
$$

...SOME OBSERVATIONS FROM AROUND THE REGION...

CITY           SKY/WX    TMP DP  RH WIND       PRES   REMARKS
DENVER         CLEAR     39  31  72 S12       30.14S WCI  32
LIMON          CLEAR     33  32  96 W8        30.15R WCI  26
ASPEN          CLOUDY    37  29  72 SW9       30.20R WCI  30
LARAMIE        CLOUDY    36  19  50 S7        30.13R WCI  30
GILLETTE       CLEAR     45  30  55 S12       29.96S
CHEYENNE       CLEAR     39  25  57 S7        30.13S WCI  34
SCOTTSBLUFF    CLEAR     39  28  64 SE6       30.11R WCI  35
GRAND ISLAND   CLOUDY    40  40 100 N15       30.05R WCI  32
OMAHA          RAIN      43  38  82 N13G23    30.00R
SIOUX FALLS    CLOUDY    39  35  86 NE16      30.13F WCI  30
PIERRE         CLEAR     37  31  78 E7        30.12R WCI  32
RAPID CITY     CLEAR     42  29  59 SE7       30.06R
BISMARCK       CLEAR     33  31  92 E8        30.15R WCI  26
KANSAS CITY    CLOUDY    59  57  93 SE7       29.82F
HILL CITY      CLOUDY    43  40  89 N17G26    30.04R
WICHITA        MOCLDY    54  48  80 N16       29.85R
DODGE CITY     CLOUDY    42  40  92 N20G31    29.98R
OKLAHOMA CITY  CLOUDY    59  50  72 NE7       29.71S
DALLAS         PTCLDY    75  37  25 W13       29.81R
AMARILLO       MOCLDY    44  36  73 NW28G38   30.03R
$$




USA.gov is the U.S. government's official web portal to all federal, state and local government web resources and services.